Regional Weather Roundup
Issued by NWS

Home | Current Version | Previous Version | Graphics & Text | Print | Product List | Glossary On
Versions: 1 2 3 4 5 6 7 8 9 10 11 12 13 14 15 16 17 18 19 20 21 22 23 24 25 26 27 28 29 30 31 32 33 34 35 36 37 38 39 40 41 42 43 44 45 46 47 48 49 50
000
ASUS43 KDTX 292210
RWRMI
MICHIGAN HOURLY REGIONAL WEATHER ROUNDUP
NATIONAL WEATHER SERVICE DETROIT/PONTIAC MI
500 PM EST THU JAN 29 2015

NOTE: "FAIR" INDICATES FEW OR NO CLOUDS BELOW 12,000 FEET WITH NO
SIGNIFICANT WEATHER AND/OR OBSTRUCTION TO VISIBILITY.

MIZ047>049-052>055-059>063-066>070-074>076-081>083-292300-
SOUTHEAST LOWER MICHIGAN

CITY           SKY/WX    TMP DP  RH WIND       PRES   REMARKS
ADRIAN         CLOUDY    33  29  85 NW9G17    29.87R
ALMA           CLOUDY    32  29  90 NW10      29.88R FOG
ANN ARBOR      LGT SNOW  32  28  85 NW13G20   29.84R FOG
BAD AXE        CLOUDY    28  27  96 NW6       29.81R
DETROIT CITY   LGT SNOW  33  28  81 NW8       29.81R VSB 1
DETROIT        LGT SNOW  32  28  86 W10       29.84R FOG
FLINT          CLOUDY    32  27  81 NW13      29.84R HAZE
GROSSE ILE     LGT SNOW  32  30  93 NW10G16   29.81R
HILLSDALE      CLOUDY    33  29  87 NW15G23   29.86R
HOWELL         CLOUDY    31  28  88 NW12G20   29.84R FOG

CITY           SKY/WX    TMP DP  RH WIND       PRES   REMARKS
JACKSON        CLOUDY    32  28  85 NW9       29.86R FOG
LAMBERTVILLE   LGT SNOW  34  32  93 NW7       29.85R
LANSING        CLOUDY    32  27  81 NW10      29.88R HAZE
LAPEER         NOT AVBL
MASON          CLOUDY    31  27  83 NW10      29.86R
MONROE         LGT SNOW  34  30  86 NW8       29.82R VSB 1
MT. CLEMENS    LGT SNOW  30  28  93 NW12      29.79R VSB 1
PONTIAC        LGT SNOW  30  27  88 NW12      29.80R FOG
PORT HOPE        N/A     30  25  81 NW9       29.78R
PORT HURON     LGT SNOW  28  28 100 NW9       29.79R VSB 3/4
TRI CITIES     CLOUDY    34  26  72 NW17      29.85R
YPSILANTI      LGT SNOW  35  28  75 NW17      29.83R
$$
MIZ043>046-050>051-056>058-064>065-071>073-077>080-292300-
SOUTHWEST LOWER MICHIGAN

CITY           SKY/WX    TMP DP  RH WIND       PRES   REMARKS
BATTLE CREEK   CLOUDY    33  28  81 NW16G22   29.91R HAZE
BENTON HARBOR  CLOUDY    33  29  85 NW14G23   29.99R
BIG RAPIDS     CLOUDY    32  26  78 N16G26    29.89R
COLDWATER      CLOUDY    32  28  86 NW12      29.90R
HOLLAND        CLOUDY    34  26  72 NW12G23   29.97R
GRAND RAPIDS   FLURRIES  32  27  81 NW18      29.92R
KALAMAZOO      CLOUDY    33  27  78 NW16      29.93R HAZE
MARSHALL       CLOUDY    31  27  83 NW9       29.89R
MUSKEGON       CLOUDY    34  25  69 NW18G31   29.96R
$$
MIZ016>042-292300-
NORTHERN LOWER MICHIGAN

CITY           SKY/WX    TMP DP  RH WIND       PRES   REMARKS
ALPENA         CLOUDY    29  27  92 NW8       29.80R FOG
BEAVER ISLAND  LGT SNOW  24  20  84 NW14G25   29.93R
BELLAIRE       LGT SNOW  29  24  79 NW13G21   29.93R
CADILLAC       CLOUDY    28  22  77 NW22G33   29.86R
CHARLEVOIX     CLOUDY    26  22  84 NW23G32   29.95R
FRANKFORT      CLOUDY    30  24  78 N16G24    29.97R
GAYLORD        CLOUDY    26  24  92 NW14G26   29.83R
GRAYLING       CLOUDY    28  25  86 NW22G29   29.85R
HARBOR SPRINGS CLOUDY    28  22  81 NW13G26   29.89R
HOUGHTON LAKE  CLOUDY    28  23  81 NW16G28   29.84R
MANISTEE       CLOUDY    30  25  80 N12G23    29.97R
OSCODA         CLOUDY    31  26  83 NW10      29.79R
PELLSTON       CLOUDY    27  22  81 NW22G32   29.88R
TRAVERSE CITY  FLURRIES  30  22  72 NW17G29   29.93R
$$
MIZ007>008-015-292300-
EASTERN UPPER MICHIGAN

CITY           SKY/WX    TMP DP  RH WIND       PRES   REMARKS
KINROSS        CLOUDY    27  27 100 NW21G32   29.80R
MACKINAC ISLAN CLOUDY    27  23  85 NW14G24   29.85R
NEWBERRY       LGT SNOW  21  19  90 NW13G25   29.90R
S. S. MARIE    LGT SNOW  26  22  84 NW18G30   29.80R FOG
$$
MIZ004>006-011>014-085-292300-
CENTRAL UPPER MICHIGAN

CITY           SKY/WX    TMP DP  RH WIND       PRES   REMARKS
MANISTIQUE     LGT SNOW  21  17  85 NW18G32   29.95R
ESCANABA       CLOUDY    27  16  63 N16G30    30.01R
MENOMINEE      CLOUDY    30  18  59 N20G28    30.02R
SAWYER-GWINN   SNOW      18  12  79 N24G31    30.02R VSB 1/2 WCI   0
$$
MIZ001>003-009>011-084-292300-
WESTERN UPPER MICHIGAN

CITY           SKY/WX    TMP DP  RH WIND       PRES   REMARKS
IRON MOUNTAIN  LGT SNOW  23  15  71 N28G37    30.03R
HOUGHTON       LGT SNOW  18   9  68 N18G31    30.11R
COPPER HARBOR    N/A     19  12  74 NE26G41   30.13R
IRONWOOD       CLOUDY    21  14  73 NW17G24   30.15R
$$

ABBREVIATIONS USED IN REMARKS
   TC - TEMPERATURE IN CELSIUS
  WCI - WIND CHILL INDEX
   HX - HEAT INDEX
  VSB - VISIBILITY



USA.gov is the U.S. government's official web portal to all federal, state and local government web resources and services.